KB2UHF-8 Weather Reports


time (UTC)temp
F
wind
direction
speed
knots
gust
knots
rain 1hr
in
rain 24hr
in
rain mn
in
humidity
%
barometer
mb
20260904161519 80 135 4.3 9.6 0.00 0.10 0.06 90 1014.3
20260904160517 80 135 5.2 8.7 0.00 0.12 0.06 88 1014.2
20260904155517 79 135 4.3 7.8 0.00 0.18 0.06 90 1014.3
20260904154537 79 113 3.5 8.7 0.01 0.22 0.06 89 1014.3
20260904153517 80 113 3.5 6.1 0.01 0.22 0.06 91 1014.3
20260904152517 78 135 5.2 9.6 0.01 0.24 0.06 92 1014.0
20260904151517 77 113 3.5 8.7 0.01 0.26 0.06 92 1014.2
20260904150517 77 135 5.2 8.7 0.01 0.27 0.06 90 1013.9
20260904145517 79 135 5.2 9.6 0.01 0.27 0.06 89 1014.0
20260904144517 78 113 5.2 10.4 0.00 0.27 0.05 92 1014.0
20260904143517 77 113 5.2 7.8 0.00 0.28 0.05 94 1013.8
20260904142517 76 135 5.2 8.7 0.00 0.28 0.05 95 1013.7
20260904141517 76 113 3.5 6.1 0.00 0.28 0.05 98 1013.4
20260904140517 74 158 2.6 4.3 0.00 0.28 0.05 97 1013.6
20260904135517 74 158 2.6 4.3 0.00 0.29 0.05 97 1013.5
20260904134517 74 90 2.6 3.5 0.00 0.31 0.05 97 1013.4
20260904133517 74 0.0 0.9 0.00 0.33 0.05 97 1013.6
20260904132557 74 90 1.7 2.6 0.00 0.37 0.05 97 1013.5
20260904131518 74 90 2.6 3.5 0.00 0.39 0.05 97 1013.3
20260904130516 74 113 1.7 2.6 0.00 0.41 0.05 97 1013.3
20260904125517 74 0.0 0.0 0.00 0.45 0.05 97 1013.2
20260904124517 74 90 1.7 3.5 0.00 0.47 0.05 97 1013.0
20260904123517 74 0.0 2.6 0.00 0.50 0.05 97 1012.9
20260904122517 74 0.0 0.0 0.00 0.51 0.05 96 1012.6
20260904121517 74 0.0 0.0 0.00 0.52 0.05 96 1012.3
20260904120517 74 0.0 0.0 0.00 0.52 0.05 96 1012.4
20260904115517 74 45 0.9 2.6 0.00 0.52 0.05 96 1012.5
20260904114557 74 0.0 0.0 0.05 0.52 0.05 96 1012.3
20260904113518 74 0.0 0.0 0.05 0.52 0.05 95 1012.4
20260904112538 74 0.0 2.6 0.05 0.52 0.05 95 1012.2
20260904111517 75 180 0.9 4.3 0.05 0.52 0.05 95 1012.3
20260904110537 75 180 2.6 5.2 0.05 0.52 0.05 95 1012.1
20260904105517 75 248 0.9 3.5 0.05 0.52 0.05 95 1012.3
20260904104537 75 315 1.7 3.5 0.00 0.47 0.00 94 1012.4
20260904103518 75 248 0.9 2.6 0.00 0.47 0.00 94 1012.1
20260904102517 75 225 1.7 6.1 0.00 0.47 0.00 94 1012.1
20260904101517 75 225 1.7 6.1 0.00 0.47 0.00 94 1012.1
20260904100517 75 203 0.9 4.3 0.00 0.47 0.00 95 1012.2
20260904095537 76 180 0.9 5.2 0.00 0.47 0.00 95 1012.1
20260904094517 76 0.0 1.7 0.00 0.47 0.00 95 1012.4
20260904093517 76 180 0.9 2.6 0.00 0.47 0.00 95 1012.3
20260904092516 76 203 0.9 5.2 0.00 0.47 0.00 95 1012.4
20260904091516 76 180 0.9 3.5 0.00 0.47 0.00 95 1012.5
20260904090517 76 0.0 1.7 0.00 0.47 0.00 95 1012.5
20260904085516 76 0.0 1.7 0.00 0.47 0.00 94 1012.3
20260904084516 76 225 0.9 4.3 0.00 0.47 0.00 95 1012.3
20260904083558 76 180 1.7 3.5 0.00 0.47 0.00 95 1012.3
20260904082516 76 180 0.9 5.2 0.00 0.47 0.00 95 1012.3
20260904081518 76 225 0.9 3.5 0.00 0.47 0.00 95 1012.2
20260904080516 76 225 1.7 7.0 0.00 0.47 0.00 95 1012.2
20260904075516 76 225 1.7 3.5 0.00 0.47 0.00 95 1012.1
20260904074516 76 203 0.9 3.5 0.00 0.47 0.00 95 1012.0
20260904073518 76 203 0.9 4.3 0.00 0.47 0.00 95 1012.1
20260904072516 76 248 0.9 7.0 0.00 0.47 0.00 95 1012.0
20260904071537 76 225 1.7 5.2 0.00 0.47 0.00 96 1011.8
20260904070536 76 225 1.7 5.2 0.00 0.47 0.00 96 1011.8
20260904065536 76 225 2.6 7.8 0.00 0.47 0.00 97 1011.8
20260904064516 75 225 1.7 7.0 0.00 0.47 0.00 97 1011.8
20260904063518 75 225 0.9 3.5 0.00 0.47 0.00 97 1011.9
20260904062516 75 225 1.7 3.5 0.00 0.47 0.00 97 1012.0
20260904061536 75 225 0.9 3.5 0.00 0.47 0.00 96 1012.0
20260904060516 75 0.0 1.7 0.00 0.47 0.00 96 1012.1
20260904055516 75 0.0 1.7 0.00 0.47 0.00 96 1012.3
20260904054516 75 0.0 3.5 0.00 0.47 0.00 96 1012.4
20260904053536 75 135 2.6 3.5 0.00 0.47 0.00 96 1012.3
20260904052516 75 90 1.7 3.5 0.00 0.47 0.00 96 1012.6
20260904051536 75 113 2.6 5.2 0.00 0.47 0.00 96 1012.7
20260904050517 75 158 0.9 4.3 0.01 0.47 0.00 96 1013.0
20260904045517 75 158 1.7 7.0 0.02 0.47 0.47 96 1012.9
20260904044517 75 113 5.2 8.7 0.02 0.47 0.47 96 1012.8
20260904043517 75 135 5.2 11.3 0.02 0.47 0.47 96 1012.7
20260904042517 75 113 5.2 9.6 0.02 0.47 0.47 96 1012.7
20260904041517 75 135 3.5 7.0 0.02 0.47 0.47 96 1012.9
20260904040517 75 113 3.5 6.1 0.01 0.46 0.46 95 1013.2
20260904035517 75 113 4.3 7.8 0.00 0.45 0.45 95 1013.3
20260904034517 75 113 5.2 7.8 0.00 0.45 0.45 95 1013.1
20260904033517 75 113 5.2 9.6 0.00 0.45 0.45 95 1013.2
20260904032516 75 113 6.1 9.6 0.00 0.45 0.45 95 1013.3
20260904031517 75 90 5.2 7.8 0.00 0.45 0.45 95 1013.3
20260904030557 75 90 4.3 7.8 0.00 0.45 0.45 95 1013.2
20260904025538 75 90 4.3 7.0 0.00 0.45 0.45 95 1013.3
20260904024516 75 90 3.5 7.8 0.00 0.45 0.45 94 1013.3
20260904023518 76 113 4.3 7.0 0.00 0.45 0.45 94 1013.2
20260904022516 76 113 5.2 7.8 0.00 0.45 0.45 94 1013.2
20260904021517 76 113 4.3 7.8 0.00 0.45 0.45 94 1013.2
20260904020537 76 113 4.3 7.0 0.00 0.45 0.45 94 1013.2
20260904015517 76 113 4.3 7.8 0.00 0.45 0.45 93 1013.2
20260904014517 76 113 5.2 7.8 0.00 0.45 0.45 94 1012.9
20260904013517 76 113 5.2 7.8 0.00 0.45 0.45 93 1012.8
20260904012517 76 113 4.3 6.1 0.00 0.45 0.45 93 1012.5
20260904011516 76 113 4.3 7.0 0.00 0.45 0.45 93 1012.4
20260904010557 76 113 4.3 7.0 0.00 0.45 0.45 92 1012.3
20260904005516 77 113 4.3 6.1 0.00 0.45 0.45 92 1012.2
20260904004516 77 113 4.3 7.0 0.00 0.45 0.45 91 1012.4
20260904003516 77 90 3.5 6.1 0.00 0.45 0.45 90 1012.5
20260904002516 77 90 2.6 5.2 0.00 0.45 0.45 89 1012.6
20260904001516 78 90 3.5 6.1 0.00 0.45 0.45 89 1012.5
20260904000516 78 113 4.3 7.0 0.00 0.45 0.45 88 1012.6
20260903235536 79 90 3.5 5.2 0.00 0.45 0.45 87 1012.7
20260903234517 79 113 3.5 7.0 0.00 0.45 0.45 87 1012.7
20260903233516 80 113 2.6 7.0 0.00 0.45 0.45 86 1012.7
20260903232516 80 113 4.3 7.0 0.00 0.45 0.45 86 1012.8
20260903231516 80 90 4.3 7.8 0.00 0.45 0.45 85 1012.6
20260903230516 80 113 3.5 6.1 0.00 0.45 0.45 84 1013.1
20260903225517 80 90 3.5 6.1 0.00 0.45 0.45 84 1013.0
20260903224516 80 90 5.2 8.7 0.00 0.45 0.45 83 1013.0
20260903223516 81 90 3.5 6.1 0.00 0.45 0.45 83 1012.8
20260903222516 81 90 2.6 5.2 0.00 0.45 0.45 83 1012.9
20260903221518 81 90 2.6 5.2 0.00 0.45 0.45 81 1012.9
20260903220518 81 0.0 1.7 0.00 0.45 0.45 83 1013.0
20260903215516 80 135 1.7 4.3 0.00 0.45 0.45 83 1013.2
20260903214517 80 158 1.7 4.3 0.00 0.45 0.45 82 1013.1
20260903213516 81 135 3.5 7.0 0.00 0.45 0.45 82 1012.9
20260903212516 81 135 2.6 7.0 0.00 0.45 0.45 81 1013.1
20260903211516 81 135 4.3 9.6 0.00 0.45 0.45 80 1013.0
20260903210516 81 135 2.6 7.0 0.00 0.45 0.45 84 1013.0
20260903205536 80 135 2.6 6.1 0.00 0.45 0.45 83 1013.0
20260903204516 79 135 1.7 3.5 0.00 0.45 0.45 84 1013.1
20260903203536 79 135 3.5 7.8 0.00 0.45 0.45 84 1013.2
20260903202516 79 113 3.5 7.0 0.00 0.45 0.45 83 1013.2
20260903201536 79 113 3.5 5.2 0.00 0.45 0.45 84 1013.2
20260903200516 79 90 1.7 3.5 0.00 0.45 0.45 83 1013.4
20260903195516 79 135 0.9 3.5 0.00 0.45 0.45 83 1013.7
20260903194516 79 0.0 1.7 0.00 0.45 0.45 84 1013.8
20260903193517 79 68 0.9 2.6 0.00 0.45 0.45 85 1013.5
20260903192536 78 0.0 1.7 0.00 0.45 0.45 86 1013.4
20260903191536 78 135 1.7 4.3 0.00 0.45 0.45 85 1013.1
20260903190516 77 135 3.5 7.0 0.00 0.45 0.45 87 1013.0
20260903185516 77 135 4.3 8.7 0.00 0.45 0.45 90 1013.0
20260903184516 76 90 3.5 5.2 0.00 0.45 0.45 91 1013.0
20260903183516 75 90 2.6 6.1 0.00 0.45 0.45 93 1013.2
20260903182516 75 90 0.9 3.5 0.00 0.45 0.45 94 1013.2
20260903181516 74 68 1.7 3.5 0.00 0.45 0.45 95 1013.5
20260903180516 73 135 3.5 7.0 0.00 0.45 0.45 95 1013.0
20260903175516 73 135 4.3 7.8 0.00 0.45 0.45 95 1013.1
20260903174516 73 135 3.5 7.0 0.00 0.45 0.45 97 1013.2
20260903173516 72 135 5.2 8.7 0.00 0.45 0.45 97 1013.0
20260903172516 72 135 4.3 8.7 0.00 0.45 0.45 97 1013.2
20260903171516 72 158 2.6 5.2 0.02 0.45 0.45 98 1013.7
20260903170536 71 158 1.7 4.3 0.04 0.45 0.45 98 1013.5
20260903165516 71 225 1.7 4.3 0.10 0.45 0.45 98 1013.9
20260903164536 70 203 0.9 5.2 0.14 0.45 0.45 98 1014.1
20260903163516 70 135 3.5 7.0 0.14 0.45 0.45 98 1013.8
20260903162516 70 0.0 0.0 0.16 0.45 0.45 97 1014.2